Location: Lachaise
(45.8833°N, 1.8500°E)
Time: 06:17:15
(UTC+00:00)

Cosmos 1763 Rocket - Pass Details

Date: 07 June 2020
Orbit: 733 x 780 km, 74.0° (Epoch: 04 July)

Event Time Altitude Azimuth Distance (km) Brightness Sun altitude
Exits shadow 00:05:57 50° 180° (S) 933 3.5 -21.3°
Maximum altitude 00:07:14 75° 109° (ESE) 765 3.4 -21.2°
Drops below altitude 10° 00:12:18 10° 25° (NNE) 2,245 6.9 -21.2°
Sets 00:14:39 0° 24° (NNE) 3,171 8.0 -21.1°
